STARLINK-30162 (57446 NORAD) Tracking and Keplerian Element Data

This shows tracking and keplerian element data for the satellite.

Feedback or suggestion? Click here.




ElementValue
Catalog57446
NameSTARLINK-30162
Epoch Orbit2736
Epoch Day12.92832166
Epoch Year2024
RAAN203.7421
Inclination43.0012
Eccentricity0.0001329
Argument of Perigee265.0278
Mean Anonmoly95.0413
Mean Motion15.02536361
Decay Rate-5.54E-06
L11 57446U 23105S 24012.92832166 -.00000554 00000+0 -25962-4 0 9996
L22 57446 43.0012 203.7421 0001329 265.0278 95.0413 15.02536361 27364



Live tracking and technical data element details for STARLINK-30162 (NORAD 57446). STARLINK-30162 can be tracked NOW for your location showing map with azimuth and elevation plus other details from your city location.







IsCatalogInMostPopularTable: catalog: 57446, numindb: 6
Update: records affected: 1



GetName: 57446 STARLINK-30162

Hit Count: updated at: Thu, 22 Feb 2024 00:21:24 GMT